Home > Weather > Québec > Past weeks

Flag for Canada Weather for the Past 2 Weeks in Québec, Quebec, Canada

Now
-11 °F

Passing clouds.


Feels Like: -32 °F
Forecast: -15 / -2 °F
Wind: 13 mph from Northwest

Location: Quebec Weather Station

Current Time: Feb 14, 2016 at 4:07:12 AM

Latest Report: Feb 14, 2016 at 3:00 AM


Visibility: 15 mi

Pressure: 30.22 "Hg

Humidity: 52%

Dew point: -24 °F

Location of QuébecLocation

Historic Weather in Québec — Graph

°F

Québec Temperature Yesterday

Maximum temperature yesterday: 10 °F (at 1:00 AM)
Minimum temperature yesterday: -6 °F (at 7:00 PM)
Average temperature yesterday: 2 °F

High & Low Weather Summary for the Past Weeks

 TemperatureHumidityPressure
High41 °F (Feb 1, 10:00 AM)100% (Feb 1, 5:59 AM)30.46 "Hg (Feb 1, 5:59 AM)
Low-9 °F (Feb 12, 7:00 AM)34% (Feb 7, 12:00 PM)29.31 "Hg (Feb 1, 10:00 AM)
Average18 °F75%29.93 "Hg
* Reported Jan 30 2:00 AM — Feb 14 2:00 AM, Québec, Weather by CustomWeather, © 2016

Note: Actual official high and low records may vary slightly from our data, if they occured in-between our weather recording intervals... More about our weather records

Advertising

Québec Weather History for the Previous 24 Hours

 ConditionsComfort  
Time TempWeatherWind HumidityBarometerVisibility
2:00 AM
Sun, Feb 14
-8 °FPassing clouds.10 mph48%30.20 "Hg15 mi
1:00 AM-6 °FPassing clouds.12 mph54%30.16 "Hg15 mi
12:00 AM-8 °FPartly cloudy.9 mph64%30.14 "Hg15 mi
11:00 PM
Sat, Feb 13
-6 °FMostly cloudy.15 mph64%30.12 "Hg15 mi
10:48 PM-6 °FMostly cloudy.16 mph64%30.12 "Hg15 mi
10:00 PM-6 °FSnow flurries. Overcast.15 mph64%30.11 "Hg15 mi
9:00 PM-6 °FSnow flurries. Overcast.21 mph70%30.11 "Hg10 mi
8:00 PM-6 °FSnow flurries. Mostly cloudy.21 mph70%30.09 "Hg15 mi
7:00 PM-6 °FSnow flurries. Mostly cloudy.21 mph70%30.07 "Hg8 mi
6:00 PM-4 °FSnow flurries. Overcast.22 mph65%30.05 "Hg5 mi
5:00 PM-4 °FMostly cloudy.24 mph71%30.02 "Hg4 mi
4:00 PM-4 °FScattered flurries. Overcast.22 mph77%29.99 "Hg2 mi
3:00 PM-2 °FScattered flurries. Partly sunny.25 mph71%29.97 "Hg8 mi
2:00 PM-2 °FPartly sunny.22 mph65%29.94 "Hg10 mi
1:00 PM-2 °FBroken clouds.25 mph65%29.92 "Hg10 mi
12:00 PM-2 °FBroken clouds.24 mph71%29.92 "Hg10 mi
11:00 AM-2 °FBroken clouds.22 mph71%29.89 "Hg8 mi
10:00 AM0 °FLight snow. Cloudy.21 mph71%29.86 "Hg2 mi
9:00 AM1 °FLight snow. Mostly cloudy.22 mph78%29.83 "Hg2 mi
8:00 AM7 °FLight snow. Cloudy.10 mph78%29.81 "Hg2 mi
7:00 AM10 °FLight snow. Ice fog.7 mph79%29.80 "Hg1 mi
6:00 AM10 °FLight snow. Mostly cloudy.9 mph85%29.77 "Hg1 mi
5:52 AM10 °FLight snow. Mostly cloudy.9 mph85%29.77 "Hg1 mi
5:00 AM10 °FLight snow. Mostly cloudy.9 mph85%29.76 "Hg4 mi
4:00 AM10 °FLight snow. Mostly cloudy.9 mph85%29.76 "Hg5 mi
Weather by CustomWeather, © 2016

See weather overviewHow to use our weather pages